Location: Newark
(48.3983°N, 16.0611°E)
Time: 01:12:56
(UTC+00:00)

ISS - Pass Details

Date: 27 January 2020
Orbit: 415 x 423 km, 51.6° (Epoch: 28 February)

Event Time Altitude Azimuth Distance (km) Brightness Sun altitude
Rises 16:34:05 0° 249° (WSW) 2,376 2.6 -8.2°
Reaches altitude 10° 16:36:11 10° 250° (WSW) 1,512 0.8 -8.5°
Maximum altitude 16:39:36 85° 340° (NNW) 431 -3.7 -9.1°
Enters shadow 16:42:28 14° 68° (ENE) 1,301 -1.9 -9.5°
